DW0407 Weather Reports


time (UTC)temp
F
wind
direction
speed
knots
gust
knots
rain 1hr
in
rain 24hr
in
rain mn
in
humidity
%
barometer
mb
20260505211513 82 219 9.6 20.0 0.00 0.00 0.00 41 1005.7
20260505210018 82 183 9.6 23.5 0.00 0.00 0.00 40 1005.6
20260505204525 82 209 12.2 19.1 0.00 0.00 0.00 40 1005.6
20260505203028 82 176 11.3 20.0 0.00 0.00 0.00 43 1005.6
20260505201526 82 242 7.8 18.2 0.00 0.00 0.00 43 1005.7
20260505200016 82 203 8.7 21.7 0.00 0.00 0.00 44 1005.8
20260505194522 81 196 10.4 19.1 0.00 0.00 0.00 44 1006.0
20260505191513 81 182 7.8 15.6 0.00 0.00 0.00 43 1006.2
20260505184520 81 205 7.8 16.5 0.00 0.00 0.00 44 1006.9
20260505183025 80 194 9.6 17.4 0.00 0.00 0.00 45 1007.0
20260505181525 80 186 7.8 18.2 0.00 0.00 0.00 45 1007.1
20260505180017 80 126 9.6 19.1 0.00 0.00 0.00 45 1007.3
20260505174519 79 227 8.7 19.1 0.00 0.00 0.00 45 1007.4
20260505173018 79 179 5.2 16.5 0.00 0.00 0.00 50 1007.4
20260505171524 79 215 7.0 15.6 0.00 0.00 0.00 47 1007.7
20260505170024 79 165 7.8 18.2 0.00 0.00 0.00 49 1007.9
20260505164510 79 228 7.0 20.0 0.00 0.00 0.00 49 1008.1
20260505163049 79 259 7.0 20.0 0.00 0.00 0.00 50 1008.4
20260505161520 78 240 8.7 21.7 0.00 0.00 0.00 48 1008.6
20260505151520 76 229 7.0 14.8 0.00 0.00 0.00 56 1008.8
20260505124522 63 146 4.3 8.7 0.00 0.00 0.00 75 1009.8
20260505123049 62 210 3.5 8.7 0.00 0.00 0.00 77 1009.9
20260505121526 61 186 4.3 12.2 0.00 0.00 0.00 77 1009.9
20260505120014 60 159 3.5 9.6 0.00 0.00 0.00 80 1009.9
20260505114523 59 182 2.6 8.7 0.00 0.00 0.00 82 1009.6
20260505113015 58 152 4.3 8.7 0.00 0.00 0.00 83 1009.4
20260505111506 57 140 2.6 7.8 0.00 0.00 0.00 84 1009.1
20260505101523 56 162 2.6 7.0 0.00 0.00 0.00 85 1008.5
20260505100004 56 183 3.5 7.8 0.00 0.00 0.00 84 1008.5
20260505094506 57 173 1.7 6.1 0.00 0.00 0.00 83 1008.6
20260505093011 57 182 3.5 7.8 0.00 0.00 0.00 83 1008.5
20260505091505 57 210 1.7 8.7 0.00 0.00 0.00 82 1008.4
20260505084508 57 208 4.3 10.4 0.00 0.00 0.00 82 1008.1
20260505083007 58 149 4.3 9.6 0.00 0.00 0.00 80 1008.1
20260505081507 59 199 2.6 7.0 0.00 0.00 0.00 79 1008.1
20260505073008 59 212 0.9 6.1 0.00 0.00 0.00 78 1008.0
20260505071507 60 169 2.6 7.0 0.00 0.00 0.00 77 1007.7
20260505070007 60 169 3.5 6.1 0.00 0.00 0.00 76 1007.8
20260505063009 61 140 1.7 7.0 0.00 0.00 0.00 74 1007.9
20260505061512 61 191 2.6 7.0 0.00 0.00 0.00 74 1008.0
20260505060022 62 188 2.6 6.1 0.00 0.00 0.00 72 1008.0
20260505054516 63 155 3.5 7.8 0.00 0.00 0.00 71 1008.0
20260505051510 64 194 4.3 11.3 0.00 0.00 0.00 68 1008.1
20260505040017 66 200 6.1 9.6 0.00 0.00 0.00 64 1007.7
20260505034513 66 200 4.3 9.6 0.00 0.00 0.00 64 1007.6
20260505033017 67 196 5.2 10.4 0.00 0.00 0.00 62 1007.6
20260505024513 67 173 3.5 9.6 0.00 0.00 0.00 60 1007.6
20260505023017 68 198 4.3 11.3 0.00 0.00 0.00 59 1007.7
20260505021515 69 190 4.3 9.6 0.00 0.00 0.00 58 1007.7
20260505014516 70 210 3.5 9.6 0.00 0.00 0.00 55 1007.4
20260505013016 70 196 5.2 9.6 0.00 0.00 0.00 55 1007.4
20260505011520 71 202 4.3 12.2 0.00 0.00 0.00 53 1007.4
20260505010014 71 204 6.1 14.8 0.00 0.00 0.00 53 1006.9
20260505004534 70 207 5.2 9.6 0.00 0.00 0.00 53 1006.7
20260505003016 70 180 4.3 8.7 0.00 0.00 0.00 52 1006.6
20260505001521 71 198 2.6 7.8 0.00 0.00 0.00 52 1006.6
20260505000022 71 200 4.3 8.7 0.00 0.00 0.00 50 1006.6
20260504234526 72 228 1.7 8.7 0.00 0.00 0.00 50 1006.5
20260504233016 73 183 3.5 12.2 0.00 0.00 0.00 48 1006.5
20260504231535 74 179 4.3 12.2 0.00 0.00 0.00 47 1006.4
20260504230006 74 171 5.2 10.4 0.00 0.00 0.00 47 1006.4
20260504224509 74 174 4.3 10.4 0.00 0.00 0.00 46 1006.4
20260504223010 74 232 4.3 9.6 0.00 0.00 0.00 46 1006.5
20260504221518 75 241 4.3 10.4 0.00 0.00 0.00 46 1006.5
20260504220020 75 145 5.2 12.2 0.00 0.00 0.00 46 1006.5
20260504214509 74 238 3.5 11.3 0.00 0.00 0.00 47 1006.6
20260504213009 74 202 5.2 14.8 0.00 0.00 0.00 46 1006.5